Vertical_Velocity
-2 -1 -1 -1 -0 -1 1 2 -3 -3 -0 -0 2 -0 2 -1 4 1 2 3 7 4 2 1 1 2 2 -0 2 -1 -1 1 0 -0 1 -0 1 -0 -0 2 1 1 0 -2 1 3 1 -0 -0
0 -2 -3 -4 1 -3 2 1 -5 -1 -3 1 -0 -0 6 -4 -1 3 5 -0 3 1 -1 2 2 2 1 -0 -0 0 0 1 -0 -0 -1 -2 1 1 1 3 1 1 -0 -1 -0 2 0 -1 0
-1 -0 -4 -2 5 3 -4 -1 -1 -2 -2 -0 -1 1 6 -1 3 3 4 0 -1 -2 -3 -1 1 0 1 2 0 0 0 2 -1 -0 -0 -0 1 -1 1 2 2 1 0 -2 3 2 2 0 1
-4 -1 -7 -5 3 11 1 -1 -5 4 -1 -1 3 -1 4 -1 7 -1 -1 -1 -0 -3 -2 1 0 1 2 3 2 -1 -2 2 1 0 1 0 0 0 1 2 2 1 1 0 1 2 -0 -2 -1
-3 -1 -2 -0 5 -0 3 0 -4 4 2 -0 4 -0 5 5 -1 2 4 2 0 1 -1 -1 -1 1 1 2 1 -1 -2 1 -1 -1 1 -0 -2 -1 -1 -0 -1 -1 -0 -0 0 2 -0 -1 -0
-6 -2 0 -2 1 2 7 -2 -1 -1 0 0 -1 3 2 2 1 0 2 -2 -0 -0 -0 0 -1 1 0 2 2 3 -2 2 0 -1 0 -0 -1 -1 -1 -1 -0 0 0 -1 -1 0 1 1 -0
-2 -10 7 -4 5 2 1 -4 -1 0 4 4 -2 1 4 -2 -3 -5 -5 -1 -0 1 1 1 -2 2 1 1 2 3 -0 0 -1 1 1 1 0 -0 -1 -0 -2 -1 -0 -0 0 1 1 1 0
-2 -9 6 3 5 0 5 1 4 -2 7 -0 -2 3 2 -0 6 7 6 0 -1 2 2 2 -1 1 2 1 1 2 1 -2 -1 -1 -1 0 -1 2 -4 -2 -1 -2 0 1 -1 2 1 0 0
-2 -11 2 7 -1 2 -3 -2 2 -7 15 -8 -7 7 5 4 4 5 8 3 2 -0 2 -0 -2 0 1 -0 0 0 0 -0 -1 0 1 -0 1 2 0 -4 -3 -3 1 0 -1 1 1 -0 -1
-5 -6 9 -3 3 1 -2 -0 -1 -11 0 7 -3 0 2 7 3 4 5 7 -0 -3 -2 -2 -3 1 1 -1 -0 0 -1 -1 0 1 1 -1 0 1 -1 -2 1 -0 0 0 0 1 1 0 -0
-2 -4 4 12 0 -3 -2 3 -12 -7 3 9 -1 -5 2 2 5 4 3 5 3 -0 3 1 -2 2 0 1 1 1 -0 -1 0 -1 -0 -1 1 0 0 -0 -2 -1 -1 -1 0 -0 1 0 -0
-31 -1 -2 10 1 -3 -1 1 1 -12 13 -3 2 -4 -3 0 2 3 2 3 3 3 -1 1 1 1 -0 0 2 -1 -0 -1 0 -0 -1 -0 2 -1 -1 -3 -2 -2 -1 -0 1 0 0 0 -0
-8 5 -3 -1 3 -6 -3 -1 -3 -6 8 -3 5 -1 -2 -1 1 1 3 -0 3 7 0 1 -1 -0 1 2 1 1 3 5 2 -0 1 1 1 2 -1 -3 -0 0 0 -1 0 0 -1 -1 -1
3 -3 4 4 9 -0 -17 8 -26 29 -6 -6 -7 0 -4 -3 -1 -2 -1 3 0 2 5 -1 0 -1 -1 -1 -1 0 1 1 4 0 3 2 1 2 -2 -3 -4 -1 1 1 1 -0 -0 -0 0
4 -11 -10 22 10 -2 -32 10 17 15 -14 7 -4 -1 -1 -3 -0 0 -1 1 -1 4 -1 -0 2 -2 0 -0 -1 -0 0 1 2 2 1 2 1 1 -0 -0 -2 -1 -1 -1 1 2 -0 -0 -1
-7 -14 3 25 8 -4 -26 23 16 -7 -6 3 -3 -2 -0 -1 1 2 4 8 3 7 5 1 -1 0 -1 1 -1 -0 -1 0 -0 2 1 2 2 2 2 -1 -2 1 1 1 2 2 2 1 1
5 -5 -22 -5 6 -14 -28 20 30 -9 -9 2 1 -4 -1 2 -3 1 2 -1 3 -0 3 3 -1 1 0 -1 1 -1 -0 -1 -1 -1 0 -1 -3 -0 0 -1 -3 -2 0 1 -0 1 -2 -1 -1
-3 -23 -10 1 26 -12 -3 4 10 1 -18 -3 8 2 -6 -1 7 -1 -1 0 -0 5 -4 1 -1 -0 1 -0 -2 -0 1 -1 2 5 4 2 1 -2 -1 -0 -3 -4 -1 3 5 5 1 -1 -3
-9 -16 -3 9 7 -18 -5 -21 16 10 -20 -2 8 0 -1 4 5 -2 2 -2 -4 1 4 6 4 7 -1 0 2 2 8 3 2 2 3 1 2 2 -2 -3 0 0 0 -1 -2 -1 1 -1 2
-9 -15 19 6 9 -16 20 -54 26 1 16 -10 -2 5 3 -3 6 7 -2 -6 -5 -5 -1 1 7 -5 2 -2 5 2 5 4 1 -3 -1 -3 -1 2 3 3 -2 -3 -2 -2 0 2 -0 2 -1
5 1 11 -12 -2 -15 -5 -66 86 9 -4 11 -6 -3 2 5 -1 4 -5 4 1 1 0 -3 2 2 1 5 -8 -4 -4 -3 -2 5 5 8 7 4 -0 4 2 -1 -1 -0 0 0 2 3 -4
-28 50 17 1 -12 -10 3 -107 67 16 -9 2 -1 -3 -0 4 3 6 -4 1 2 7 -0 -1 -1 4 4 -4 -2 2 4 2 9 3 -1 0 -2 -1 -2 -1 -1 -1 -2 -1 -2 1 1 5 0
-69 -6 8 12 -9 -2 -3 -60 95 15 7 10 10 -2 -5 -4 -4 -1 4 -2 -7 -1 0 2 -0 -2 6 3 -0 -4 -5 5 -1 -1 -3 -2 2 -0 -2 1 -2 -1 1 2 -0 2 -1 5 -7
13 -10 5 12 11 -16 23 -37 -20 -23 37 -12 -1 4 -1 -2 2 6 4 3 -3 -3 -0 -3 -2 4 2 -3 2 -0 3 6 -7 4 1 2 5 1 -1 2 -0 -1 -0 3 2 2 -3 6 -3
8 8 -4 0 3 -59 35 14 -73 -7 10 15 -1 -6 1 4 6 2 2 7 7 -1 1 1 -0 2 -1 -2 -2 3 8 4 2 1 5 2 2 -0 6 3 -2 -0 3 5 -1 -2 -6 3 -1
3 29 11 11 -13 -18 33 -39 -58 7 3 5 14 -8 2 1 3 2 6 11 1 6 0 -1 -0 8 5 0 5 8 5 4 7 3 5 -1 -1 8 0 1 -2 -1 -1 1 3 -3 -7 1 -2
-11 -20 22 8 12 8 2 -7 -20 -10 -4 4 3 5 -8 -3 -5 -3 -5 -4 6 10 14 4 -1 6 3 9 6 -3 -0 -4 6 10 2 2 1 2 12 15 -12 -9 3 3 -4 -4 -2 -1 2
5 11 23 44 -9 13 13 10 -21 -0 6 2 -8 -3 -6 -6 5 -3 1 1 3 4 6 8 3 -4 -2 2 -1 3 -2 -3 1 -1 -0 -0 5 -0 2 8 11 -6 16 4 8 1 3 -4 1
1 14 10 9 22 18 18 38 28 7 5 10 -3 -8 -7 1 -5 -4 2 1 1 5 5 10 12 2 2 -1 1 -4 -1 -1 -4 -11 -7 7 -5 12 5 3 -0 8 12 12 18 29 20 -0 3
37 4 25 38 29 14 7 26 2 2 -3 -1 -6 -4 -0 -4 -5 -2 -0 3 -2 -2 3 5 7 6 4 -8 -4 2 -3 -5 -3 -4 -2 2 -10 8 -6 -13 -24 -5 9 82 73 0 1 4 -8
Height
5837 5835 5833 5832 5832 5830 5828 5825 5818 5815 5813 5811 5813 5812 5813 5815 5819 5823 5825 5828 5830 5832 5834 5836 5837 5838 5839 5840 5840 5840 5840 5841 5843 5844 5845 5848 5849 5850 5851 5851 5852 5853 5853 5853 5853 5852 5851 5850 5848
5830 5829 5828 5825 5825 5824 5822 5817 5811 5811 5809 5807 5807 5808 5809 5811 5814 5817 5821 5823 5825 5826 5828 5831 5833 5834 5835 5835 5836 5836 5837 5838 5839 5841 5842 5844 5846 5848 5849 5849 5850 5851 5852 5852 5852 5851 5850 5849 5848
5823 5822 5822 5819 5819 5821 5815 5811 5807 5806 5804 5803 5802 5805 5808 5810 5812 5813 5815 5817 5819 5821 5823 5825 5827 5830 5831 5831 5832 5832 5834 5835 5836 5838 5839 5841 5843 5845 5845 5846 5847 5848 5850 5851 5851 5850 5850 5849 5847
5815 5815 5814 5812 5813 5816 5811 5805 5801 5801 5801 5799 5797 5800 5805 5806 5809 5808 5809 5810 5813 5814 5817 5819 5822 5824 5825 5827 5829 5829 5830 5832 5833 5834 5835 5837 5839 5840 5841 5842 5842 5845 5847 5849 5849 5849 5848 5847 5847
5809 5808 5805 5805 5808 5808 5804 5799 5796 5796 5797 5795 5792 5796 5802 5803 5804 5805 5804 5806 5808 5809 5812 5814 5817 5819 5820 5822 5824 5825 5826 5828 5830 5831 5831 5832 5834 5835 5836 5837 5839 5841 5844 5846 5847 5847 5846 5846 5845
5801 5800 5796 5797 5799 5801 5798 5790 5788 5789 5790 5789 5785 5792 5796 5798 5799 5799 5800 5801 5803 5805 5808 5809 5812 5814 5815 5817 5819 5821 5822 5825 5826 5827 5827 5829 5831 5832 5833 5834 5835 5838 5840 5843 5845 5845 5844 5843 5843
5793 5790 5788 5791 5791 5794 5787 5783 5781 5783 5784 5782 5781 5787 5791 5791 5793 5795 5797 5798 5799 5801 5803 5804 5806 5809 5810 5812 5814 5816 5818 5820 5822 5823 5824 5826 5828 5829 5830 5830 5831 5834 5837 5840 5842 5843 5842 5842 5841
5785 5780 5780 5784 5784 5782 5781 5777 5775 5776 5780 5777 5778 5782 5785 5787 5790 5792 5793 5791 5792 5794 5795 5797 5800 5802 5804 5807 5809 5811 5814 5816 5817 5818 5819 5821 5824 5825 5827 5826 5827 5830 5833 5837 5838 5839 5839 5839 5839
5776 5773 5773 5778 5774 5776 5772 5769 5770 5770 5773 5770 5772 5778 5781 5783 5785 5787 5789 5787 5787 5789 5790 5792 5794 5796 5799 5801 5804 5806 5809 5811 5814 5814 5815 5817 5819 5820 5822 5823 5825 5826 5829 5832 5834 5836 5836 5836 5836
5767 5763 5769 5769 5767 5766 5766 5763 5764 5763 5765 5769 5769 5771 5774 5777 5778 5780 5782 5784 5783 5784 5785 5787 5789 5792 5794 5796 5798 5801 5804 5807 5810 5810 5810 5812 5814 5816 5816 5818 5821 5823 5826 5828 5830 5831 5832 5832 5833
5758 5754 5761 5763 5759 5759 5761 5758 5755 5755 5760 5765 5763 5766 5766 5769 5772 5774 5776 5778 5778 5779 5780 5781 5784 5787 5788 5790 5793 5796 5799 5802 5805 5805 5806 5807 5809 5811 5812 5813 5815 5817 5821 5824 5826 5827 5828 5829 5829
5747 5750 5752 5753 5753 5753 5753 5751 5751 5748 5755 5758 5758 5758 5758 5761 5765 5768 5771 5772 5773 5774 5775 5777 5780 5781 5782 5784 5787 5790 5794 5797 5800 5801 5802 5803 5805 5807 5808 5808 5809 5812 5815 5818 5821 5822 5824 5824 5825
5741 5745 5743 5745 5748 5746 5745 5748 5744 5744 5750 5750 5749 5751 5752 5754 5758 5761 5764 5766 5768 5770 5770 5771 5773 5776 5777 5779 5782 5784 5788 5791 5794 5796 5797 5799 5801 5802 5803 5804 5805 5806 5809 5813 5815 5817 5818 5819 5819
5735 5735 5735 5740 5743 5739 5738 5740 5732 5751 5743 5738 5740 5743 5745 5747 5750 5752 5755 5760 5762 5763 5765 5765 5767 5768 5771 5774 5776 5779 5781 5784 5788 5789 5791 5793 5794 5796 5797 5799 5801 5802 5803 5806 5810 5812 5813 5814 5815
5725 5723 5725 5735 5736 5734 5730 5727 5736 5742 5731 5731 5734 5737 5739 5741 5741 5746 5750 5754 5756 5758 5757 5760 5761 5762 5765 5767 5770 5772 5775 5777 5780 5783 5785 5787 5788 5790 5791 5793 5795 5797 5798 5801 5804 5806 5808 5809 5810
5713 5713 5717 5727 5728 5727 5720 5719 5730 5731 5726 5727 5730 5731 5734 5737 5737 5739 5744 5747 5751 5752 5753 5754 5755 5757 5759 5761 5763 5766 5769 5770 5773 5776 5779 5780 5782 5784 5785 5787 5788 5789 5792 5795 5798 5800 5801 5803 5804
5700 5706 5709 5709 5717 5716 5711 5710 5723 5724 5723 5723 5722 5723 5726 5729 5732 5735 5736 5739 5742 5745 5745 5746 5747 5749 5752 5754 5755 5758 5761 5764 5767 5770 5773 5776 5776 5777 5779 5781 5782 5783 5786 5789 5792 5794 5795 5796 5798
5698 5693 5695 5696 5702 5708 5706 5700 5710 5715 5715 5713 5716 5718 5718 5721 5726 5727 5729 5731 5734 5737 5740 5740 5740 5743 5745 5745 5747 5750 5754 5757 5760 5764 5767 5769 5771 5772 5772 5774 5774 5777 5779 5781 5785 5786 5787 5788 5790
5686 5683 5682 5683 5688 5692 5697 5696 5699 5704 5704 5705 5709 5711 5713 5715 5718 5716 5719 5723 5725 5727 5730 5735 5735 5736 5736 5738 5742 5745 5748 5749 5752 5755 5757 5760 5764 5765 5766 5767 5767 5769 5772 5774 5776 5778 5779 5780 5783
5673 5675 5674 5678 5675 5679 5685 5685 5692 5689 5695 5697 5698 5702 5704 5706 5709 5711 5709 5711 5714 5718 5721 5725 5729 5729 5730 5732 5736 5738 5741 5741 5742 5743 5747 5751 5756 5758 5759 5760 5760 5762 5764 5766 5769 5771 5772 5773 5774
5663 5663 5665 5667 5669 5668 5665 5672 5683 5684 5682 5688 5688 5690 5694 5696 5699 5701 5701 5701 5704 5708 5712 5714 5717 5720 5722 5723 5724 5726 5728 5729 5732 5737 5742 5745 5747 5749 5752 5752 5752 5752 5754 5757 5759 5761 5763 5764 5765
5650 5657 5657 5655 5652 5653 5657 5651 5665 5670 5674 5673 5677 5678 5682 5686 5688 5691 5693 5693 5694 5697 5699 5703 5707 5710 5712 5713 5713 5716 5719 5722 5726 5729 5733 5734 5736 5739 5741 5743 5743 5743 5744 5747 5750 5750 5753 5755 5757
5635 5636 5637 5637 5635 5636 5642 5640 5646 5649 5658 5663 5666 5670 5670 5672 5676 5679 5681 5682 5684 5685 5687 5690 5693 5697 5700 5704 5705 5706 5708 5711 5714 5717 5719 5722 5726 5729 5731 5732 5733 5734 5734 5737 5739 5742 5744 5746 5746
5622 5618 5618 5617 5617 5613 5631 5628 5630 5634 5640 5648 5652 5656 5657 5660 5663 5666 5668 5670 5671 5672 5675 5678 5680 5683 5686 5690 5693 5696 5699 5701 5702 5705 5709 5711 5714 5717 5719 5721 5722 5724 5725 5725 5728 5730 5731 5734 5735
5600 5601 5600 5599 5594 5587 5610 5605 5623 5624 5621 5624 5633 5638 5643 5647 5649 5651 5654 5656 5658 5660 5661 5663 5666 5670 5672 5675 5680 5682 5686 5689 5692 5694 5697 5699 5702 5704 5706 5708 5710 5711 5712 5713 5714 5716 5719 5722 5724
5585 5586 5584 5580 5578 5583 5589 5579 5607 5613 5608 5605 5608 5615 5620 5629 5632 5637 5640 5643 5645 5647 5648 5650 5651 5654 5657 5661 5664 5668 5671 5675 5679 5681 5684 5686 5689 5691 5693 5695 5696 5697 5697 5699 5701 5703 5705 5707 5709
5569 5562 5578 5567 5569 5564 5568 5571 5582 5592 5592 5591 5594 5596 5604 5608 5613 5618 5623 5627 5629 5631 5633 5634 5636 5637 5640 5644 5647 5650 5654 5659 5664 5667 5670 5673 5675 5678 5680 5682 5683 5683 5682 5683 5684 5687 5690 5693 5695
5547 5556 5557 5553 5548 5550 5548 5553 5559 5571 5574 5573 5575 5576 5584 5590 5594 5598 5603 5608 5611 5614 5614 5616 5618 5621 5623 5626 5631 5634 5638 5643 5648 5652 5656 5659 5661 5663 5667 5669 5668 5669 5669 5670 5670 5668 5668 5672 5677
5531 5535 5540 5541 5539 5532 5540 5540 5539 5549 5555 5555 5558 5563 5569 5571 5575 5580 5585 5590 5593 5596 5598 5600 5603 5606 5607 5610 5613 5617 5621 5626 5631 5635 5641 5645 5646 5648 5652 5654 5655 5652 5654 5654 5654 5657 5657 5659 5664
5511 5518 5518 5517 5521 5521 5524 5527 5529 5534 5538 5541 5544 5548 5554 5555 5559 5562 5566 5572 5576 5578 5580 5582 5585 5590 5592 5593 5597 5599 5603 5609 5614 5618 5624 5629 5631 5631 5636 5638 5636 5638 5643 5623 5631 5645 5649 5649 5652